Theta_e
314 314 314 313 311 309 307 306 299 311 312 298 299 295 297 295 299 300 297 297 296 296 298 298 299 300 304 307 306 304 309 305 302 305 312 312 311 310 310 306 307 310 309 308
314 314 314 312 312 310 306 303 304 312 309 293 295 299 298 299 298 298 297 296 297 298 296 295 298 301 306 307 305 304 306 304 300 303 308 310 308 310 312 312 313 310 306 308
314 314 313 312 312 310 306 303 298 303 305 302 297 296 295 295 300 297 298 297 299 297 295 298 296 300 304 305 305 314 308 304 303 299 304 308 306 307 310 310 308 310 309 314
314 314 314 312 312 310 306 304 299 302 296 299 299 298 296 293 294 299 299 296 296 295 293 295 295 299 301 303 311 307 306 301 305 306 308 309 308 307 308 309 311 308 312 313
313 314 314 312 312 310 303 300 298 301 299 299 297 295 293 293 295 296 295 295 296 298 295 296 295 297 299 300 305 306 307 302 305 303 307 308 307 308 308 309 310 312 313 317
313 313 314 313 311 307 304 305 304 299 297 297 295 295 295 296 297 298 298 297 297 296 298 301 302 302 303 303 302 303 302 303 303 299 306 306 303 308 308 309 312 312 310 319
312 313 313 313 310 307 306 305 303 296 292 294 295 297 297 295 295 294 298 299 297 300 304 304 303 302 301 302 302 304 300 301 304 300 304 296 307 313 313 311 312 314 316 321
312 312 313 313 311 309 307 308 303 298 292 296 296 297 296 297 297 296 295 297 302 304 301 294 293 293 295 297 300 300 302 300 299 299 299 304 307 311 311 310 311 316 317 320
312 312 312 313 312 309 306 306 308 302 295 295 299 296 297 294 293 295 298 301 304 302 297 293 288 286 290 291 294 301 300 304 299 301 298 296 309 313 317 315 306 319 318 320
312 312 312 313 313 309 307 307 308 304 296 299 299 295 296 298 298 295 298 299 298 302 293 289 288 288 294 289 291 293 295 298 296 299 299 305 313 316 317 305 311 328 326 329
311 312 312 312 312 310 306 305 309 303 297 299 301 301 298 297 297 293 298 293 295 296 292 291 291 291 294 295 297 297 296 296 296 299 299 298 322 321 314 324 329 328 329 331
311 311 312 311 312 310 308 302 308 307 297 297 304 304 306 305 302 298 299 296 295 300 295 296 293 293 297 298 292 303 298 302 300 302 303 323 323 322 325 327 327 327 328 329
311 311 312 311 311 310 308 305 306 302 297 296 298 300 306 308 307 307 297 300 301 301 302 295 294 292 299 293 297 301 305 310 305 309 310 313 321 322 321 324 326 328 330 332
311 311 311 311 311 311 309 304 305 303 298 291 297 307 304 309 309 306 306 303 305 305 303 294 293 292 300 295 297 300 306 309 310 309 314 317 319 319 319 321 327 329 331 334
310 311 311 310 310 310 308 307 306 306 298 291 295 303 306 308 307 305 304 303 304 302 298 293 292 298 297 301 301 299 308 307 303 303 313 314 316 319 321 324 327 329 333 336
310 311 311 310 310 310 305 298 305 307 305 294 291 303 304 306 306 304 303 303 302 300 297 297 299 303 299 295 295 304 308 308 310 306 315 317 320 322 326 326 328 331 332 335
311 311 310 310 308 309 302 299 305 307 306 294 291 296 306 306 304 303 301 303 302 301 300 297 298 299 301 296 293 303 305 306 312 314 315 314 318 319 325 325 328 329 330 330
311 311 309 308 307 307 304 307 308 307 301 298 290 294 300 305 301 298 303 299 300 301 299 299 298 300 300 296 301 306 307 309 312 312 313 315 318 321 322 326 327 326 327 325
311 310 309 308 306 303 305 310 308 308 301 291 292 291 291 304 304 305 304 303 294 300 296 296 299 294 295 301 304 304 307 308 310 313 313 316 316 315 317 323 322 323 326 325
310 308 304 300 305 310 310 304 298 298 298 296 291 296 292 301 302 300 301 302 296 291 295 299 296 291 298 301 305 306 308 310 313 310 309 312 313 312 315 321 321 322 328 326
308 307 305 308 311 305 299 293 293 295 292 296 296 296 295 304 296 297 302 297 300 290 296 295 293 290 295 301 302 305 308 312 312 313 315 314 315 313 314 320 321 323 326 327
311 313 312 307 302 298 292 290 290 287 293 297 297 299 300 302 308 301 300 294 293 287 298 290 289 292 298 300 300 302 308 311 313 313 313 315 315 316 316 317 320 322 327 329
318 313 310 308 308 296 298 296 299 299 298 301 301 299 302 305 304 300 297 292 293 298 292 290 292 296 297 298 300 304 311 314 315 313 314 315 315 317 316 317 322 322 324 327
316 309 295 304 300 302 304 304 306 308 307 305 304 300 299 298 297 295 292 298 299 291 287 287 293 296 297 301 304 305 308 314 315 314 315 315 317 317 318 319 320 322 322 324
310 309 297 303 307 307 307 308 309 312 310 307 303 301 300 297 293 298 297 292 288 289 288 294 298 299 299 301 303 304 306 309 309 311 313 314 316 317 318 319 321 323 322 321
312 310 305 308 305 305 306 306 306 310 313 312 313 304 299 297 296 291 289 288 287 293 298 301 304 302 302 302 304 305 306 307 307 308 309 311 311 311 312 314 316 316 317 319
309 307 311 309 308 306 307 308 307 311 307 301 301 296 296 302 294 293 297 294 299 304 301 302 308 307 306 307 308 307 306 306 306 306 306 308 309 310 311 309 311 311 312 315
Wind_Speed
15 14 10 10 12 17 16 10 8 9 3 8 7 11 17 4 16 5 8 11 17 19 17 16 18 15 5 13 15 11 15 21 21 29 25 29 25 26 26 17 19 15 7 5
14 13 9 8 10 9 9 7 9 2 3 9 7 6 13 8 10 12 11 12 14 16 14 14 14 20 6 10 12 11 14 10 17 25 22 25 29 26 26 25 17 19 13 3
13 12 8 8 9 7 6 8 4 6 7 9 10 9 6 14 13 10 12 16 14 14 15 17 16 16 11 6 11 10 8 11 16 16 21 17 25 28 27 26 17 15 18 13
12 11 8 8 8 6 6 7 5 6 8 3 9 11 8 10 13 9 9 11 15 15 15 14 14 18 18 17 7 7 9 16 17 23 26 26 24 24 29 27 23 22 19 17
12 11 8 8 7 4 6 5 6 9 11 13 9 8 11 15 13 12 4 11 14 12 12 9 14 17 17 14 14 8 14 15 16 24 24 28 24 29 29 27 27 25 23 8
12 12 8 9 8 5 4 5 6 7 12 12 10 7 7 11 10 5 11 16 9 9 15 14 14 14 15 15 14 12 14 12 13 20 20 24 26 22 27 24 26 24 23 15
12 12 9 10 11 10 8 4 7 5 9 12 6 16 11 9 8 11 9 8 11 12 10 15 15 15 16 16 14 15 15 15 13 16 17 23 14 21 18 26 25 23 21 13
12 12 10 9 12 12 8 5 5 3 8 10 10 14 11 10 9 11 14 15 9 8 12 11 14 14 17 19 17 18 17 15 10 13 15 18 24 22 17 16 22 23 17 18
12 11 10 9 13 11 3 4 5 4 6 6 8 12 11 9 9 7 12 8 3 8 10 9 17 15 19 18 19 20 19 17 12 13 17 23 16 21 13 10 11 14 16 14
12 11 10 10 10 12 4 2 4 2 6 10 7 7 8 6 12 8 6 10 13 14 9 11 15 17 22 22 24 21 17 15 16 14 11 12 13 19 16 13 4 17 12 12
11 10 9 8 7 17 6 1 2 2 3 10 13 15 15 13 10 7 4 2 5 12 6 11 12 10 18 23 24 24 18 15 13 15 12 15 19 9 3 11 15 17 17 18
9 9 7 6 5 19 12 2 3 2 1 6 16 15 17 15 11 10 4 5 2 4 5 6 5 6 15 17 14 25 21 16 13 14 14 12 17 14 13 14 13 15 14 14
8 8 6 6 3 21 16 2 3 2 2 6 10 10 8 16 15 14 5 4 4 5 6 3 3 9 13 12 7 15 2 10 17 13 18 21 16 16 14 13 14 13 16 16
7 6 3 5 3 18 15 3 4 1 1 3 5 6 3 2 8 10 15 11 5 2 2 0 5 8 5 6 7 7 9 13 9 16 14 9 15 14 11 11 12 15 16 15
4 4 1 1 5 9 9 3 3 2 1 3 8 18 12 11 9 6 7 11 7 1 3 2 5 8 5 7 10 2 7 8 7 5 12 11 11 12 12 11 13 14 15 16
3 3 6 6 5 10 3 2 3 4 2 2 5 6 3 5 10 11 10 9 5 4 2 7 5 8 2 6 4 7 11 9 8 6 16 13 8 11 11 13 13 15 16 17
5 8 9 11 10 3 2 2 1 9 3 2 5 4 2 11 3 10 7 9 5 4 3 7 10 7 2 6 9 7 5 13 6 15 18 11 17 17 21 24 13 16 17 18
10 10 14 11 11 6 2 3 9 6 1 2 3 5 3 4 4 5 9 5 6 6 5 6 6 8 4 6 9 9 8 8 9 10 17 14 12 17 20 20 17 15 16 17
11 12 14 3 1 1 3 9 7 1 1 2 2 4 4 6 5 2 3 3 5 4 6 4 2 1 5 13 15 16 11 8 9 11 14 16 14 16 19 18 14 13 13 14
10 5 3 3 2 12 12 4 3 1 0 1 2 3 5 7 4 4 1 4 5 5 5 4 5 3 8 16 16 14 13 15 14 12 11 18 12 11 16 17 11 12 12 13
4 4 3 4 12 0 2 1 2 2 2 3 3 4 6 4 4 2 4 3 4 5 2 3 4 4 10 16 19 19 18 14 10 10 11 10 11 10 15 15 17 9 12 13
5 2 7 4 4 3 3 1 1 2 2 2 4 3 5 5 4 2 1 3 5 4 3 3 2 3 14 15 19 19 18 16 16 8 10 11 10 11 14 14 13 12 10 12
6 5 7 7 7 3 5 6 3 3 6 6 3 3 3 1 2 2 4 4 3 7 3 3 5 12 16 17 16 16 17 15 13 11 10 9 9 8 9 11 12 14 10 7
7 1 7 6 4 6 7 6 3 4 3 3 3 1 4 3 4 2 4 4 3 7 7 6 8 15 19 18 13 12 13 12 10 7 9 10 11 10 11 10 10 10 12 12
4 6 4 5 8 10 11 9 6 8 7 5 2 2 2 2 2 4 5 6 5 3 2 4 6 9 13 16 17 18 15 11 14 15 15 14 15 13 13 15 14 14 14 15
3 5 8 10 10 11 12 12 11 5 6 5 3 2 1 5 4 4 5 5 4 4 2 3 1 4 7 9 10 13 15 12 14 16 14 15 15 13 11 13 15 15 13 13
3 4 8 8 9 9 9 9 10 12 10 11 10 8 7 3 5 3 3 4 4 4 6 7 6 6 10 11 2 3 4 8 10 12 13 13 13 13 11 12 12 13 13 13
Wind_Direction
322 317 296 300 308 323 293 269 279 121 254 258 235 253 245 304 287 345 284 263 275 285 295 301 298 277 11 13 338 297 281 239 243 255 219 211 218 219 235 240 238 261 274 221
321 318 291 292 307 333 315 268 271 159 213 256 244 324 320 272 259 273 272 270 262 275 275 282 285 288 326 4 331 26 347 255 237 245 248 203 212 222 225 239 231 241 250 174
321 318 288 277 292 312 295 285 275 202 201 245 287 281 279 262 241 239 282 296 296 279 248 254 271 284 296 5 292 7 312 268 269 241 241 212 201 222 227 231 236 233 242 181
322 320 290 255 279 298 283 253 310 4 299 340 311 322 310 287 287 248 208 251 255 270 274 270 253 274 287 300 300 274 266 266 268 265 266 256 206 208 230 229 233 241 242 231
317 313 294 238 252 275 260 297 344 334 290 289 276 260 256 264 264 321 267 273 288 328 259 325 325 351 305 303 328 358 308 276 265 267 271 265 263 204 215 233 230 241 250 114
312 307 295 227 229 221 273 329 316 296 291 271 262 266 299 267 308 260 310 332 301 262 338 356 323 306 299 305 321 320 309 307 282 262 260 267 262 239 203 221 237 230 237 160
307 307 293 221 215 216 292 320 305 297 278 284 286 310 266 290 298 291 271 298 298 295 308 313 282 269 275 277 282 285 289 292 284 271 267 254 263 254 232 208 226 238 233 188
304 300 291 238 214 217 261 283 294 278 269 292 279 328 299 286 273 239 253 272 240 288 288 286 279 259 248 257 254 249 259 269 280 249 245 255 253 248 253 228 209 233 238 235
297 295 285 277 212 206 233 302 299 279 288 287 326 324 302 298 312 279 292 233 206 278 260 263 258 251 257 233 242 241 234 245 259 273 242 236 242 248 252 273 259 218 242 254
298 287 281 285 222 175 146 244 310 297 274 271 307 327 321 2 310 274 54 359 313 213 248 242 249 246 245 227 225 224 213 226 223 238 259 252 243 281 252 243 341 6 7 347
298 285 274 278 253 171 154 246 239 257 279 295 308 298 298 310 305 330 37 0 324 273 223 252 253 266 256 236 225 207 196 205 213 231 228 242 9 32 325 13 18 12 7 11
301 287 268 274 257 174 173 185 157 93 204 285 320 288 285 280 274 287 279 210 104 308 297 45 336 287 292 243 222 196 203 204 209 211 225 83 77 59 37 12 12 7 2 4
306 293 252 255 250 179 180 129 120 130 307 278 254 256 257 233 242 244 239 3 348 40 15 327 260 276 300 3 43 354 250 187 212 215 237 260 65 51 16 4 358 356 2 354
320 314 266 253 185 187 175 157 145 75 33 289 299 263 261 224 245 237 205 229 86 76 79 303 264 270 289 313 280 327 309 310 327 232 26 0 41 22 357 354 339 17 358 342
354 358 176 178 163 190 171 81 145 112 303 318 298 301 260 266 200 213 236 238 153 310 309 235 240 274 14 290 260 21 332 23 8 348 346 341 355 331 354 351 9 9 353 355
45 73 118 108 122 122 119 85 169 176 165 297 293 324 298 312 184 192 208 225 137 204 242 268 267 274 309 282 323 120 24 343 326 307 324 306 334 341 354 340 19 17 14 5
92 101 100 114 113 52 48 22 73 149 130 247 288 288 28 261 189 185 219 196 170 211 255 265 274 289 337 276 272 96 20 309 327 330 324 343 349 0 357 355 10 18 18 12
111 104 111 103 92 115 111 76 115 132 161 286 299 296 310 48 235 198 194 201 177 215 230 255 272 306 239 250 263 5 16 337 332 347 328 327 357 358 357 355 19 22 14 8
125 124 134 103 327 90 64 133 140 24 351 329 297 307 308 115 258 206 336 199 181 255 228 222 271 241 278 352 350 351 339 316 309 319 330 315 18 0 340 0 12 15 24 10
142 173 204 125 81 121 131 146 180 239 217 183 250 292 275 303 15 301 331 213 183 175 262 260 210 79 282 344 341 329 320 300 308 311 337 338 341 339 328 353 357 11 42 20
208 212 77 80 147 123 30 62 336 353 246 189 229 248 283 279 320 262 262 284 195 167 110 252 56 358 323 325 330 322 307 282 290 291 297 304 312 322 326 334 339 3 32 32
332 45 113 137 202 195 138 95 210 241 251 221 244 279 282 304 331 283 54 328 358 61 100 9 17 277 333 331 317 314 307 293 282 255 285 297 319 321 324 319 340 338 17 43
218 219 204 189 182 341 350 8 112 205 185 215 224 284 303 254 345 337 337 326 347 126 152 53 19 337 329 325 320 318 313 294 270 264 269 301 303 304 312 321 330 344 357 12
238 230 13 2 306 359 24 41 352 109 184 165 143 95 10 8 334 15 299 343 311 35 20 14 350 339 327 332 339 346 345 344 326 332 313 298 317 312 310 325 346 7 355 343
34 16 331 359 27 35 8 13 50 130 103 192 170 152 138 145 350 339 341 8 49 29 344 333 343 344 332 338 358 6 7 23 42 37 32 29 31 18 19 10 356 358 357 14
68 26 11 14 22 32 24 9 16 62 153 193 222 136 207 71 69 25 15 352 29 347 50 98 349 309 321 327 347 14 6 14 42 39 28 37 36 30 32 24 17 17 7 13
105 30 13 5 23 40 39 25 14 14 18 30 21 32 54 127 40 101 156 350 319 303 70 41 20 24 357 342 16 120 46 29 44 62 45 31 29 27 23 28 18 14 12 10